Time,TemperatureF,DewpointF,PressureIn,WindDirection,WindDirectionDegrees,WindSpeedMPH,WindSpeedGustMPH,Humidity,HourlyPrecipIn,Conditions,Clouds,dailyrainin,SolarRadiationWatts/m^2,SoftwareType,DateUTC
2013-03-27 00:05:00,34.1,24.3,30.28,WNW,284,4.0,5.0,67,0.00,,,0.00,0,Wunderground v.1.15,2013-03-27 05:05:00,
2013-03-27 00:10:00,34.1,23.9,30.28,WNW,294,4.0,5.0,66,0.00,,,0.00,0,Wunderground v.1.15,2013-03-27 05:10:00,
2013-03-27 00:15:00,34.2,24.0,30.28,WNW,292,4.0,6.0,66,0.00,,,0.00,0,Wunderground v.1.15,2013-03-27 05:15:00,
2013-03-27 00:21:00,34.1,24.3,30.28,WNW,294,5.0,6.0,67,0.00,,,0.00,0,Wunderground v.1.15,2013-03-27 05:21:00,
2013-03-27 00:27:00,34.0,24.2,30.28,WNW,298,5.0,6.0,67,0.00,,,0.00,0,Wunderground v.1.15,2013-03-27 05:27:00,
2013-03-27 00:32:00,34.1,23.9,30.28,WNW,292,5.0,7.0,66,0.00,,,0.00,0,Wunderground v.1.15,2013-03-27 05:32:00,
2013-03-27 00:37:00,34.1,24.3,30.28,WNW,291,5.0,7.0,67,0.00,,,0.00,0,Wunderground v.1.15,2013-03-27 05:37:00,
2013-03-27 00:43:00,34.1,23.6,30.28,WNW,288,5.0,6.0,65,0.00,,,0.00,0,Wunderground v.1.15,2013-03-27 05:43:00,
2013-03-27 00:50:00,34.1,23.9,30.28,West,273,6.0,8.0,66,0.00,,,0.00,0,Wunderground v.1.15,2013-03-27 05:50:00,
2013-03-27 00:55:00,34.2,23.7,30.28,WNW,292,6.0,9.0,65,0.00,,,0.00,0,Wunderground v.1.15,2013-03-27 05:55:00,
2013-03-27 01:01:00,34.1,23.6,30.28,WNW,290,6.0,6.0,65,0.00,,,0.00,0,Wunderground v.1.15,2013-03-27 06:01:00,
2013-03-27 01:07:00,34.2,23.7,30.28,WNW,299,7.0,8.0,65,0.00,,,0.00,0,Wunderground v.1.15,2013-03-27 06:07:00,
2013-03-27 01:14:00,34.2,23.3,30.28,WNW,283,7.0,7.0,64,0.00,,,0.00,0,Wunderground v.1.15,2013-03-27 06:14:00,
2013-03-27 01:20:00,34.2,23.7,30.28,West,278,7.0,7.0,65,0.00,,,0.00,0,Wunderground v.1.15,2013-03-27 06:20:00,
2013-03-27 01:25:00,34.2,23.3,30.28,WNW,288,7.0,7.0,64,0.00,,,0.00,0,Wunderground v.1.15,2013-03-27 06:25:00,
2013-03-27 01:31:00,34.2,23.7,30.28,West,278,7.0,8.0,65,0.00,,,0.00,0,Wunderground v.1.15,2013-03-27 06:31:00,
2013-03-27 01:36:00,34.2,23.7,30.28,NW,304,6.0,9.0,65,0.00,,,0.00,0,Wunderground v.1.15,2013-03-27 06:36:00,
2013-03-27 01:42:00,34.2,23.3,30.28,WNW,291,6.0,8.0,64,0.00,,,0.00,0,Wunderground v.1.15,2013-03-27 06:42:00,
2013-03-27 01:47:00,34.2,23.3,30.28,WNW,288,6.0,9.0,64,0.00,,,0.00,0,Wunderground v.1.15,2013-03-27 06:47:00,
2013-03-27 01:56:00,34.2,23.7,30.28,WNW,290,6.0,9.0,65,0.00,,,0.00,0,Wunderground v.1.15,2013-03-27 06:56:00,
2013-03-27 02:02:00,34.1,23.2,30.28,West,280,6.0,6.0,64,0.00,,,0.00,0,Wunderground v.1.15,2013-03-27 07:02:00,
2013-03-27 02:07:00,34.2,23.3,30.28,West,275,6.0,6.0,64,0.00,,,0.00,0,Wunderground v.1.15,2013-03-27 07:07:00,
2013-03-27 02:13:00,34.2,23.3,30.28,West,277,6.0,7.0,64,0.00,,,0.00,0,Wunderground v.1.15,2013-03-27 07:13:00,
2013-03-27 02:20:00,34.2,23.3,30.28,WNW,287,6.0,7.0,64,0.00,,,0.00,0,Wunderground v.1.15,2013-03-27 07:20:00,
2013-03-27 02:25:00,34.1,23.2,30.28,West,281,6.0,8.0,64,0.00,,,0.00,0,Wunderground v.1.15,2013-03-27 07:25:00,
2013-03-27 02:31:00,34.2,23.3,30.28,West,269,6.0,8.0,64,0.00,,,0.00,0,Wunderground v.1.15,2013-03-27 07:31:00,
2013-03-27 02:36:00,34.1,23.2,30.28,West,267,7.0,7.0,64,0.00,,,0.00,0,Wunderground v.1.15,2013-03-27 07:36:00,
2013-03-27 02:42:00,34.1,23.2,30.28,West,279,6.0,6.0,64,0.00,,,0.00,0,Wunderground v.1.15,2013-03-27 07:42:00,
2013-03-27 02:50:00,34.0,23.5,30.28,West,275,6.0,7.0,65,0.00,,,0.00,0,Wunderground v.1.15,2013-03-27 07:50:00,
2013-03-27 02:55:00,34.0,23.5,30.28,NW,304,6.0,8.0,65,0.00,,,0.00,0,Wunderground v.1.15,2013-03-27 07:55:00,
2013-03-27 03:01:00,34.0,23.5,30.28,West,274,5.0,5.0,65,0.00,,,0.00,0,Wunderground v.1.15,2013-03-27 08:01:00,
2013-03-27 03:07:00,34.0,23.1,30.28,WNW,284,5.0,5.0,64,0.00,,,0.00,0,Wunderground v.1.15,2013-03-27 08:07:00,
2013-03-27 03:15:00,34.0,23.5,30.29,West,281,5.0,6.0,65,0.00,,,0.00,0,Wunderground v.1.15,2013-03-27 08:15:00,
2013-03-27 03:20:00,33.9,23.4,30.29,WNW,298,5.0,9.0,65,0.00,,,0.00,0,Wunderground v.1.15,2013-03-27 08:20:00,
2013-03-27 03:26:00,33.8,23.6,30.29,WNW,302,5.0,5.0,66,0.00,,,0.00,0,Wunderground v.1.15,2013-03-27 08:26:00,
2013-03-27 03:31:00,33.8,23.6,30.29,WNW,300,5.0,6.0,66,0.00,,,0.00,0,Wunderground v.1.15,2013-03-27 08:31:00,
2013-03-27 03:37:00,33.7,23.5,30.29,WNW,296,5.0,6.0,66,0.00,,,0.00,0,Wunderground v.1.15,2013-03-27 08:37:00,
2013-03-27 03:43:00,33.6,23.4,30.29,WNW,288,5.0,5.0,66,0.00,,,0.00,0,Wunderground v.1.15,2013-03-27 08:43:00,
2013-03-27 03:50:00,33.6,23.4,30.29,WNW,299,5.0,7.0,66,0.00,,,0.00,0,Wunderground v.1.15,2013-03-27 08:50:00,
2013-03-27 03:56:00,33.5,23.7,30.29,WNW,296,5.0,5.0,67,0.00,,,0.00,0,Wunderground v.1.15,2013-03-27 08:56:00,
2013-03-27 04:02:00,33.5,23.7,30.29,WNW,288,5.0,5.0,67,0.00,,,0.00,0,Wunderground v.1.15,2013-03-27 09:02:00,
2013-03-27 04:07:00,33.4,23.6,30.29,WNW,290,5.0,6.0,67,0.00,,,0.00,0,Wunderground v.1.15,2013-03-27 09:07:00,
2013-03-27 04:15:00,33.4,23.6,30.29,WNW,288,5.0,6.0,67,0.00,,,0.00,0,Wunderground v.1.15,2013-03-27 09:15:00,
2013-03-27 04:22:00,33.3,23.5,30.29,WNW,290,5.0,5.0,67,0.00,,,0.00,0,Wunderground v.1.15,2013-03-27 09:22:00,
2013-03-27 04:27:00,33.3,23.9,30.29,WNW,303,4.0,8.0,68,0.00,,,0.00,0,Wunderground v.1.15,2013-03-27 09:27:00,
2013-03-27 04:32:00,33.3,23.9,30.29,WNW,288,4.0,4.0,68,0.00,,,0.00,0,Wunderground v.1.15,2013-03-27 09:32:00,
2013-03-27 04:40:00,33.2,23.8,30.29,NW,305,4.0,6.0,68,0.00,,,0.00,0,Wunderground v.1.15,2013-03-27 09:40:00,
2013-03-27 04:45:00,33.2,23.4,30.29,WNW,303,4.0,5.0,67,0.00,,,0.00,0,Wunderground v.1.15,2013-03-27 09:45:00,
2013-03-27 04:50:00,33.1,23.7,30.29,WNW,295,4.0,5.0,68,0.00,,,0.00,0,Wunderground v.1.15,2013-03-27 09:50:00,
2013-03-27 04:55:00,33.1,23.7,30.29,WNW,303,4.0,5.0,68,0.00,,,0.00,0,Wunderground v.1.15,2013-03-27 09:55:00,
2013-03-27 05:01:00,33.1,23.7,30.29,West,280,4.0,4.0,68,0.00,,,0.00,0,Wunderground v.1.15,2013-03-27 10:01:00,
2013-03-27 05:07:00,33.1,23.7,30.29,WNW,301,4.0,6.0,68,0.00,,,0.00,0,Wunderground v.1.15,2013-03-27 10:07:00,
2013-03-27 05:15:00,33.1,23.7,30.29,WNW,296,4.0,5.0,68,0.00,,,0.00,0,Wunderground v.1.15,2013-03-27 10:15:00,
2013-03-27 05:20:00,33.0,23.6,30.29,WNW,292,5.0,5.0,68,0.00,,,0.00,0,Wunderground v.1.15,2013-03-27 10:20:00,
2013-03-27 05:25:00,33.0,23.9,30.29,NW,304,5.0,5.0,69,0.00,,,0.00,0,Wunderground v.1.15,2013-03-27 10:25:00,
2013-03-27 05:31:00,32.9,23.8,30.29,WNW,294,5.0,5.0,69,0.00,,,0.00,0,Wunderground v.1.15,2013-03-27 10:31:00,
2013-03-27 05:36:00,32.9,23.8,30.29,WNW,294,5.0,5.0,69,0.00,,,0.00,0,Wunderground v.1.15,2013-03-27 10:36:00,
2013-03-27 05:42:00,32.9,23.8,30.29,WNW,289,4.0,4.0,69,0.00,,,0.00,0,Wunderground v.1.15,2013-03-27 10:42:00,
2013-03-27 05:50:00,32.9,23.5,30.29,WNW,296,4.0,4.0,68,0.00,,,0.00,0,Wunderground v.1.15,2013-03-27 10:50:00,
2013-03-27 05:55:00,32.9,23.5,30.29,WNW,296,4.0,6.0,68,0.00,,,0.00,0,Wunderground v.1.15,2013-03-27 10:55:00,
2013-03-27 06:01:00,32.9,23.8,30.29,WNW,302,4.0,5.0,69,0.00,,,0.00,0,Wunderground v.1.15,2013-03-27 11:01:00,
2013-03-27 06:07:00,32.8,24.1,30.29,NW,314,4.0,5.0,70,0.00,,,0.00,0,Wunderground v.1.15,2013-03-27 11:07:00,
2013-03-27 06:15:00,32.7,24.0,30.30,NNW,333,3.0,5.0,70,0.00,,,0.00,0,Wunderground v.1.15,2013-03-27 11:15:00,
2013-03-27 06:22:00,32.6,23.9,30.30,NW,315,3.0,4.0,70,0.00,,,0.00,0,Wunderground v.1.15,2013-03-27 11:22:00,
2013-03-27 06:27:00,32.6,24.2,30.30,WNW,302,2.0,4.0,71,0.00,,,0.00,0,Wunderground v.1.15,2013-03-27 11:27:00,
2013-03-27 06:32:00,32.6,23.9,30.30,NW,309,3.0,3.0,70,0.00,,,0.00,0,Wunderground v.1.15,2013-03-27 11:32:00,
2013-03-27 06:40:00,32.5,24.1,30.30,NW,309,3.0,3.0,71,0.00,,,0.00,0,Wunderground v.1.15,2013-03-27 11:40:00,
2013-03-27 06:46:00,32.6,23.9,30.31,NW,321,3.0,4.0,70,0.00,,,0.00,0,Wunderground v.1.15,2013-03-27 11:46:00,
2013-03-27 06:52:00,32.5,24.1,30.31,WNW,292,3.0,4.0,71,0.00,,,0.00,0,Wunderground v.1.15,2013-03-27 11:52:00,
2013-03-27 06:57:00,32.5,24.1,30.31,WNW,292,3.0,4.0,71,0.00,,,0.00,5,Wunderground v.1.15,2013-03-27 11:57:00,
2013-03-27 07:02:00,32.5,24.5,30.31,WNW,288,3.0,5.0,72,0.00,,,0.00,9,Wunderground v.1.15,2013-03-27 12:02:00,
2013-03-27 07:10:00,32.5,24.1,30.31,WNW,298,3.0,5.0,71,0.00,,,0.00,14,Wunderground v.1.15,2013-03-27 12:10:00,
2013-03-27 07:15:00,32.6,24.2,30.32,WNW,293,3.0,6.0,71,0.00,,,0.00,19,Wunderground v.1.15,2013-03-27 12:15:00,
2013-03-27 07:22:00,32.6,24.2,30.32,NW,310,4.0,4.0,71,0.00,,,0.00,26,Wunderground v.1.15,2013-03-27 12:22:00,
2013-03-27 07:30:00,32.7,24.3,30.32,WNW,301,4.0,5.0,71,0.00,,,0.00,37,Wunderground v.1.15,2013-03-27 12:30:00,
2013-03-27 07:36:00,32.7,24.3,30.32,NW,306,4.0,4.0,71,0.00,,,0.00,44,Wunderground v.1.15,2013-03-27 12:36:00,
2013-03-27 07:42:00,32.7,24.3,30.32,NW,309,4.0,4.0,71,0.00,,,0.00,53,Wunderground v.1.15,2013-03-27 12:42:00,
2013-03-27 07:47:00,32.7,24.3,30.33,WNW,299,3.0,4.0,71,0.00,,,0.00,58,Wunderground v.1.15,2013-03-27 12:47:00,
2013-03-27 07:53:00,32.8,24.4,30.33,NW,316,3.0,5.0,71,0.00,,,0.00,65,Wunderground v.1.15,2013-03-27 12:53:00,
2013-03-27 08:00:00,32.8,24.8,30.33,NW,304,3.0,5.0,72,0.00,,,0.00,74,Wunderground v.1.15,2013-03-27 13:00:00,
2013-03-27 08:05:00,32.9,24.5,30.33,NW,323,4.0,4.0,71,0.00,,,0.00,81,Wunderground v.1.15,2013-03-27 13:05:00,
2013-03-27 08:10:00,33.0,24.6,30.33,NW,319,4.0,4.0,71,0.00,,,0.00,93,Wunderground v.1.15,2013-03-27 13:10:00,
2013-03-27 08:16:00,33.0,24.6,30.34,NNW,330,3.0,5.0,71,0.00,,,0.00,102,Wunderground v.1.15,2013-03-27 13:16:00,
2013-03-27 08:22:00,33.1,24.7,30.34,NNW,331,3.0,4.0,71,0.00,,,0.00,116,Wunderground v.1.15,2013-03-27 13:22:00,
2013-03-27 08:27:00,33.2,24.8,30.34,NNW,336,4.0,7.0,71,0.00,,,0.00,128,Wunderground v.1.15,2013-03-27 13:27:00,
2013-03-27 08:35:00,33.3,24.9,30.34,North,355,4.0,5.0,71,0.00,,,0.00,148,Wunderground v.1.15,2013-03-27 13:35:00,
2013-03-27 08:40:00,33.4,25.0,30.34,NW,309,4.0,5.0,71,0.00,,,0.00,155,Wunderground v.1.15,2013-03-27 13:40:00,
2013-03-27 08:45:00,33.5,24.8,30.34,NW,326,4.0,5.0,70,0.00,,,0.00,163,Wunderground v.1.15,2013-03-27 13:45:00,
2013-03-27 08:51:00,33.7,25.0,30.34,NW,311,4.0,5.0,70,0.00,,,0.00,172,Wunderground v.1.15,2013-03-27 13:51:00,
2013-03-27 08:56:00,33.8,25.0,30.34,NW,321,3.0,5.0,70,0.00,,,0.00,183,Wunderground v.1.15,2013-03-27 13:56:00,
2013-03-27 09:01:00,33.9,24.8,30.34,NNW,336,3.0,4.0,69,0.00,,,0.00,197,Wunderground v.1.15,2013-03-27 14:01:00,
2013-03-27 09:07:00,34.0,24.9,30.34,NNW,340,4.0,4.0,69,0.00,,,0.00,214,Wunderground v.1.15,2013-03-27 14:07:00,
2013-03-27 09:13:00,34.2,24.7,30.34,NW,305,4.0,5.0,68,0.00,,,0.00,232,Wunderground v.1.15,2013-03-27 14:13:00,
2013-03-27 09:20:00,34.3,24.8,30.34,WNW,302,5.0,6.0,68,0.00,,,0.00,255,Wunderground v.1.15,2013-03-27 14:20:00,
2013-03-27 09:25:00,34.4,24.9,30.34,NW,310,5.0,5.0,68,0.00,,,0.00,276,Wunderground v.1.15,2013-03-27 14:25:00,
2013-03-27 09:31:00,34.6,25.1,30.34,NW,317,4.0,5.0,68,0.00,,,0.00,294,Wunderground v.1.15,2013-03-27 14:31:00,
2013-03-27 09:37:00,34.9,25.0,30.34,WNW,292,4.0,6.0,67,0.00,,,0.00,323,Wunderground v.1.15,2013-03-27 14:37:00,
2013-03-27 09:43:00,34.9,25.4,30.34,NW,317,4.0,5.0,68,0.00,,,0.00,339,Wunderground v.1.15,2013-03-27 14:43:00,
2013-03-27 09:50:00,35.0,25.1,30.34,NW,309,4.0,6.0,67,0.00,,,0.00,352,Wunderground v.1.15,2013-03-27 14:50:00,
2013-03-27 09:55:00,35.3,25.1,30.34,WNW,298,4.0,4.0,66,0.00,,,0.00,353,Wunderground v.1.15,2013-03-27 14:55:00,
2013-03-27 10:01:00,35.7,24.7,30.34,North,360,4.0,4.0,64,0.00,,,0.00,355,Wunderground v.1.15,2013-03-27 15:01:00,
2013-03-27 10:07:00,36.0,23.8,30.34,NNW,342,5.0,5.0,61,0.00,,,0.00,408,Wunderground v.1.15,2013-03-27 15:07:00,
2013-03-27 10:13:00,36.3,24.5,30.34,NNW,342,4.0,5.0,62,0.00,,,0.00,408,Wunderground v.1.15,2013-03-27 15:13:00,
2013-03-27 10:20:00,36.0,25.4,30.34,NW,319,3.0,5.0,65,0.00,,,0.00,431,Wunderground v.1.15,2013-03-27 15:20:00,
2013-03-27 10:25:00,36.5,23.9,30.34,NNW,346,3.0,3.0,60,0.00,,,0.00,443,Wunderground v.1.15,2013-03-27 15:25:00,
2013-03-27 10:31:00,36.8,22.1,30.34,North,355,4.0,6.0,55,0.00,,,0.00,475,Wunderground v.1.15,2013-03-27 15:31:00,
2013-03-27 10:37:00,37.2,22.5,30.34,NW,323,5.0,5.0,55,0.00,,,0.00,471,Wunderground v.1.15,2013-03-27 15:37:00,
2013-03-27 10:43:00,37.3,23.4,30.34,North,355,5.0,5.0,57,0.00,,,0.00,473,Wunderground v.1.15,2013-03-27 15:43:00,
2013-03-27 10:50:00,37.4,23.1,30.34,North,10,4.0,5.0,56,0.00,,,0.00,503,Wunderground v.1.15,2013-03-27 15:50:00,
2013-03-27 10:56:00,37.5,22.8,30.34,North,360,4.0,4.0,55,0.00,,,0.00,506,Wunderground v.1.15,2013-03-27 15:56:00,
2013-03-27 11:02:00,37.6,22.4,30.34,NNW,338,4.0,4.0,54,0.00,,,0.00,536,Wunderground v.1.15,2013-03-27 16:02:00,
2013-03-27 11:10:00,37.9,21.4,30.34,NW,315,5.0,8.0,51,0.00,,,0.00,531,Wunderground v.1.15,2013-03-27 16:10:00,
2013-03-27 11:15:00,37.7,20.7,30.34,NW,315,6.0,10.0,50,0.00,,,0.00,548,Wunderground v.1.15,2013-03-27 16:15:00,
2013-03-27 11:21:00,37.7,23.0,30.34,NNE,28,6.0,10.0,55,0.00,,,0.00,464,Wunderground v.1.15,2013-03-27 16:21:00,
2013-03-27 11:26:00,38.4,20.4,30.34,NNW,344,6.0,9.0,48,0.00,,,0.00,548,Wunderground v.1.15,2013-03-27 16:26:00,
2013-03-27 11:32:00,38.5,20.5,30.34,WNW,290,7.0,9.0,48,0.00,,,0.00,478,Wunderground v.1.15,2013-03-27 16:32:00,
2013-03-27 11:37:00,38.5,19.5,30.34,NNW,338,9.0,11.0,46,0.00,,,0.00,622,Wunderground v.1.15,2013-03-27 16:37:00,
2013-03-27 11:43:00,38.3,20.3,30.34,WNW,290,8.0,8.0,48,0.00,,,0.00,497,Wunderground v.1.15,2013-03-27 16:43:00,
2013-03-27 11:50:00,38.4,19.9,30.34,NNE,14,7.0,8.0,47,0.00,,,0.00,443,Wunderground v.1.15,2013-03-27 16:50:00,
2013-03-27 11:56:00,38.3,19.3,30.34,NNW,329,8.0,12.0,46,0.00,,,0.00,353,Wunderground v.1.15,2013-03-27 16:56:00,
2013-03-27 12:01:00,38.3,19.3,30.34,NW,306,8.0,8.0,46,0.00,,,0.00,404,Wunderground v.1.15,2013-03-27 17:01:00,
2013-03-27 12:07:00,38.3,20.3,30.34,West,281,5.0,8.0,48,0.00,,,0.00,366,Wunderground v.1.15,2013-03-27 17:07:00,
2013-03-27 12:13:00,38.0,19.5,30.34,WNW,296,4.0,9.0,47,0.00,,,0.00,360,Wunderground v.1.15,2013-03-27 17:13:00,
2013-03-27 12:20:00,38.3,19.3,30.34,NNW,334,5.0,10.0,46,0.00,,,0.00,308,Wunderground v.1.15,2013-03-27 17:20:00,
2013-03-27 12:25:00,38.5,19.5,30.34,NW,323,8.0,12.0,46,0.00,,,0.00,306,Wunderground v.1.15,2013-03-27 17:25:00,
2013-03-27 12:31:00,38.3,19.3,30.34,WNW,300,9.0,9.0,46,0.00,,,0.00,332,Wunderground v.1.15,2013-03-27 17:31:00,
2013-03-27 12:37:00,38.1,20.1,30.34,NNW,327,8.0,9.0,48,0.00,,,0.00,373,Wunderground v.1.15,2013-03-27 17:37:00,
2013-03-27 12:43:00,38.3,19.8,30.34,West,268,7.0,9.0,47,0.00,,,0.00,376,Wunderground v.1.15,2013-03-27 17:43:00,
2013-03-27 12:50:00,38.6,18.0,30.34,NNW,327,8.0,10.0,43,0.00,,,0.00,387,Wunderground v.1.15,2013-03-27 17:50:00,
2013-03-27 12:55:00,38.6,19.1,30.34,NW,315,8.0,8.0,45,0.00,,,0.00,427,Wunderground v.1.15,2013-03-27 17:55:00,
2013-03-27 13:00:00,38.7,19.2,30.34,NW,304,8.0,12.0,45,0.00,,,0.00,374,Wunderground v.1.15,2013-03-27 18:00:00,
2013-03-27 13:06:00,38.5,20.0,30.34,NW,322,9.0,13.0,47,0.00,,,0.00,355,Wunderground v.1.15,2013-03-27 18:06:00,
2013-03-27 13:11:00,38.3,19.3,30.34,NNW,343,8.0,8.0,46,0.00,,,0.00,352,Wunderground v.1.15,2013-03-27 18:11:00,
2013-03-27 13:16:00,38.3,19.3,30.34,West,269,7.0,8.0,46,0.00,,,0.00,334,Wunderground v.1.15,2013-03-27 18:16:00,
2013-03-27 13:22:00,38.4,20.9,30.34,North,360,6.0,6.0,49,0.00,,,0.00,311,Wunderground v.1.15,2013-03-27 18:22:00,
2013-03-27 13:30:00,38.5,20.5,30.34,NNW,342,7.0,8.0,48,0.00,,,0.00,304,Wunderground v.1.15,2013-03-27 18:30:00,
2013-03-27 13:36:00,38.3,19.8,30.34,NNW,329,7.0,11.0,47,0.00,,,0.00,304,Wunderground v.1.15,2013-03-27 18:36:00,
2013-03-27 13:42:00,38.3,18.8,30.34,NNW,335,8.0,9.0,45,0.00,,,0.00,323,Wunderground v.1.15,2013-03-27 18:42:00,
2013-03-27 13:50:00,38.5,20.0,30.34,WNW,286,7.0,11.0,47,0.00,,,0.00,352,Wunderground v.1.15,2013-03-27 18:50:00,
2013-03-27 13:55:00,38.4,18.9,30.34,NNW,339,8.0,10.0,45,0.00,,,0.00,341,Wunderground v.1.15,2013-03-27 18:55:00,
2013-03-27 14:01:00,38.5,19.5,30.34,NW,325,7.0,11.0,46,0.00,,,0.00,364,Wunderground v.1.15,2013-03-27 19:01:00,
2013-03-27 14:07:00,38.4,18.9,30.34,West,262,7.0,11.0,45,0.00,,,0.00,378,Wunderground v.1.15,2013-03-27 19:07:00,
2013-03-27 14:13:00,38.6,19.1,30.34,NW,307,8.0,11.0,45,0.00,,,0.00,366,Wunderground v.1.15,2013-03-27 19:13:00,
2013-03-27 14:20:00,38.3,20.3,30.34,NW,315,7.0,11.0,48,0.00,,,0.00,360,Wunderground v.1.15,2013-03-27 19:20:00,
2013-03-27 14:25:00,38.6,20.1,30.34,WNW,296,6.0,10.0,47,0.00,,,0.00,345,Wunderground v.1.15,2013-03-27 19:25:00,
2013-03-27 14:32:00,38.5,19.0,30.34,NNW,335,6.0,6.0,45,0.00,,,0.00,348,Wunderground v.1.15,2013-03-27 19:32:00,
2013-03-27 14:37:00,38.7,19.7,30.34,NNW,331,6.0,8.0,46,0.00,,,0.00,343,Wunderground v.1.15,2013-03-27 19:37:00,
2013-03-27 14:43:00,38.5,19.5,30.34,NW,307,7.0,7.0,46,0.00,,,0.00,355,Wunderground v.1.15,2013-03-27 19:43:00,
2013-03-27 14:50:00,38.7,19.2,30.33,West,275,7.0,9.0,45,0.00,,,0.00,346,Wunderground v.1.15,2013-03-27 19:50:00,
2013-03-27 14:55:00,38.6,19.6,30.33,West,269,7.0,9.0,46,0.00,,,0.00,346,Wunderground v.1.15,2013-03-27 19:55:00,
2013-03-27 15:01:00,38.4,19.9,30.33,West,272,8.0,8.0,47,0.00,,,0.00,318,Wunderground v.1.15,2013-03-27 20:01:00,
2013-03-27 15:06:00,38.6,19.6,30.33,NW,309,7.0,8.0,46,0.00,,,0.00,316,Wunderground v.1.15,2013-03-27 20:06:00,
2013-03-27 15:12:00,38.5,19.5,30.33,WNW,295,7.0,7.0,46,0.00,,,0.00,288,Wunderground v.1.15,2013-03-27 20:12:00,
2013-03-27 15:18:00,38.5,20.5,30.33,NNW,327,7.0,8.0,48,0.00,,,0.00,285,Wunderground v.1.15,2013-03-27 20:18:00,
2013-03-27 15:23:00,38.5,21.0,30.33,WNW,294,7.0,8.0,49,0.00,,,0.00,272,Wunderground v.1.15,2013-03-27 20:23:00,
2013-03-27 15:30:00,38.5,20.0,30.33,NNW,331,8.0,11.0,47,0.00,,,0.00,251,Wunderground v.1.15,2013-03-27 20:30:00,
2013-03-27 15:36:00,38.4,20.9,30.33,WNW,283,8.0,8.0,49,0.00,,,0.00,236,Wunderground v.1.15,2013-03-27 20:36:00,
2013-03-27 15:42:00,38.4,20.9,30.33,NNW,339,6.0,6.0,49,0.00,,,0.00,236,Wunderground v.1.15,2013-03-27 20:42:00,
2013-03-27 15:50:00,38.3,20.3,30.33,NW,306,5.0,8.0,48,0.00,,,0.00,241,Wunderground v.1.15,2013-03-27 20:50:00,
2013-03-27 15:55:00,38.5,20.0,30.33,WNW,285,5.0,6.0,47,0.00,,,0.00,206,Wunderground v.1.15,2013-03-27 20:55:00,
2013-03-27 16:01:00,38.4,19.9,30.33,WNW,292,6.0,6.0,47,0.00,,,0.00,202,Wunderground v.1.15,2013-03-27 21:01:00,
2013-03-27 16:07:00,38.4,20.4,30.33,NW,317,5.0,6.0,48,0.00,,,0.00,216,Wunderground v.1.15,2013-03-27 21:07:00,
2013-03-27 16:13:00,38.6,19.6,30.33,NW,313,6.0,6.0,46,0.00,,,0.00,200,Wunderground v.1.15,2013-03-27 21:13:00,
2013-03-27 16:20:00,38.5,20.5,30.33,WNW,302,7.0,8.0,48,0.00,,,0.00,160,Wunderground v.1.15,2013-03-27 21:20:00,
2013-03-27 16:26:00,38.5,20.5,30.33,NW,311,7.0,7.0,48,0.00,,,0.00,146,Wunderground v.1.15,2013-03-27 21:26:00,
2013-03-27 16:32:00,38.5,20.5,30.33,WNW,294,7.0,7.0,48,0.00,,,0.00,144,Wunderground v.1.15,2013-03-27 21:32:00,
2013-03-27 16:37:00,38.5,20.5,30.33,WNW,284,7.0,9.0,48,0.00,,,0.00,144,Wunderground v.1.15,2013-03-27 21:37:00,
2013-03-27 16:43:00,38.5,20.5,30.33,NW,304,7.0,8.0,48,0.00,,,0.00,130,Wunderground v.1.15,2013-03-27 21:43:00,
2013-03-27 16:50:00,38.4,21.4,30.32,NW,320,6.0,8.0,50,0.00,,,0.00,130,Wunderground v.1.15,2013-03-27 21:50:00,
2013-03-27 16:55:00,38.4,20.9,30.32,WNW,298,6.0,6.0,49,0.00,,,0.00,121,Wunderground v.1.15,2013-03-27 21:55:00,
2013-03-27 17:01:00,38.3,21.3,30.32,NNW,332,5.0,5.0,50,0.00,,,0.00,118,Wunderground v.1.15,2013-03-27 22:01:00,
2013-03-27 17:07:00,38.3,21.3,30.32,NW,314,5.0,7.0,50,0.00,,,0.00,121,Wunderground v.1.15,2013-03-27 22:07:00,
2013-03-27 17:13:00,38.3,21.3,30.32,NW,312,6.0,10.0,50,0.00,,,0.00,135,Wunderground v.1.15,2013-03-27 22:13:00,
2013-03-27 17:20:00,38.4,20.9,30.32,WNW,288,6.0,10.0,49,0.00,,,0.00,141,Wunderground v.1.15,2013-03-27 22:20:00,
2013-03-27 17:25:00,38.4,20.9,30.32,WNW,300,5.0,6.0,49,0.00,,,0.00,123,Wunderground v.1.15,2013-03-27 22:25:00,
2013-03-27 17:30:00,38.4,20.4,30.32,NW,312,6.0,8.0,48,0.00,,,0.00,123,Wunderground v.1.15,2013-03-27 22:30:00,
2013-03-27 17:36:00,38.3,21.3,30.32,North,355,7.0,9.0,50,0.00,,,0.00,107,Wunderground v.1.15,2013-03-27 22:36:00,
2013-03-27 17:42:00,38.3,20.3,30.32,NW,307,7.0,7.0,48,0.00,,,0.00,79,Wunderground v.1.15,2013-03-27 22:42:00,
2013-03-27 17:50:00,38.2,20.2,30.32,WNW,286,8.0,8.0,48,0.00,,,0.00,84,Wunderground v.1.15,2013-03-27 22:50:00,
2013-03-27 17:55:00,37.9,20.4,30.32,West,271,7.0,8.0,49,0.00,,,0.00,86,Wunderground v.1.15,2013-03-27 22:55:00,
2013-03-27 18:01:00,38.3,20.3,30.32,NW,316,6.0,8.0,48,0.00,,,0.00,183,Wunderground v.1.15,2013-03-27 23:01:00,
2013-03-27 18:06:00,38.4,20.9,30.32,NW,325,6.0,8.0,49,0.00,,,0.00,158,Wunderground v.1.15,2013-03-27 23:06:00,
2013-03-27 18:11:00,38.3,19.8,30.32,WNW,293,6.0,6.0,47,0.00,,,0.00,137,Wunderground v.1.15,2013-03-27 23:11:00,
2013-03-27 18:16:00,38.4,20.4,30.32,WNW,290,6.0,9.0,48,0.00,,,0.00,113,Wunderground v.1.15,2013-03-27 23:16:00,
2013-03-27 18:22:00,38.5,20.0,30.32,WNW,288,6.0,6.0,47,0.00,,,0.00,93,Wunderground v.1.15,2013-03-27 23:22:00,
2013-03-27 18:27:00,38.4,21.4,30.32,NW,316,5.0,6.0,50,0.00,,,0.00,79,Wunderground v.1.15,2013-03-27 23:27:00,
2013-03-27 18:35:00,38.1,20.6,30.32,NW,311,4.0,6.0,49,0.00,,,0.00,58,Wunderground v.1.15,2013-03-27 23:35:00,
2013-03-27 18:42:00,38.1,20.6,30.32,NW,316,4.0,4.0,49,0.00,,,0.00,37,Wunderground v.1.15,2013-03-27 23:42:00,
2013-03-27 18:48:00,38.1,20.6,30.32,WNW,298,4.0,4.0,49,0.00,,,0.00,28,Wunderground v.1.15,2013-03-27 23:48:00,
2013-03-27 18:53:00,38.1,20.1,30.32,WNW,286,3.0,4.0,48,0.00,,,0.00,21,Wunderground v.1.15,2013-03-27 23:53:00,
2013-03-27 19:00:00,37.9,20.4,30.32,WNW,296,3.0,4.0,49,0.00,,,0.00,14,Wunderground v.1.15,2013-03-28 00:00:00,
2013-03-27 19:05:00,37.9,20.4,30.32,WNW,282,3.0,4.0,49,0.00,,,0.00,9,Wunderground v.1.15,2013-03-28 00:05:00,
2013-03-27 19:10:00,37.7,20.2,30.32,WNW,282,3.0,4.0,49,0.00,,,0.00,5,Wunderground v.1.15,2013-03-28 00:10:00,
2013-03-27 19:16:00,37.5,20.5,30.32,WNW,282,1.0,2.0,50,0.00,,,0.00,0,Wunderground v.1.15,2013-03-28 00:16:00,
2013-03-27 19:21:00,37.2,20.2,30.32,WNW,282,0.0,0.0,50,0.00,,,0.00,0,Wunderground v.1.15,2013-03-28 00:21:00,
2013-03-27 19:27:00,36.5,21.4,30.32,WNW,282,0.0,0.0,54,0.00,,,0.00,0,Wunderground v.1.15,2013-03-28 00:27:00,
2013-03-27 19:32:00,35.5,21.8,30.32,WNW,282,0.0,0.0,57,0.00,,,0.00,0,Wunderground v.1.15,2013-03-28 00:32:00,
2013-03-27 19:40:00,34.9,21.6,30.32,WNW,282,0.0,0.0,58,0.00,,,0.00,0,Wunderground v.1.15,2013-03-28 00:40:00,
2013-03-27 19:45:00,34.7,21.8,30.32,WNW,282,0.0,0.0,59,0.00,,,0.00,0,Wunderground v.1.15,2013-03-28 00:45:00,
2013-03-27 19:51:00,34.3,21.8,30.32,WNW,282,0.0,0.0,60,0.00,,,0.00,0,Wunderground v.1.15,2013-03-28 00:51:00,
2013-03-27 19:56:00,34.0,21.6,30.32,WNW,282,0.0,0.0,60,0.00,,,0.00,0,Wunderground v.1.15,2013-03-28 00:56:00,
2013-03-27 20:01:00,33.1,21.5,30.32,WNW,282,0.0,0.0,62,0.00,,,0.00,0,Wunderground v.1.15,2013-03-28 01:01:00,
2013-03-27 20:07:00,32.3,22.9,30.32,WNW,282,0.0,0.0,68,0.00,,,0.00,0,Wunderground v.1.15,2013-03-28 01:07:00,
2013-03-27 20:12:00,31.9,22.5,30.32,WNW,282,0.0,0.0,68,0.00,,,0.00,0,Wunderground v.1.15,2013-03-28 01:12:00,
2013-03-27 20:17:00,31.9,23.2,30.32,WNW,282,0.0,0.0,70,0.00,,,0.00,0,Wunderground v.1.15,2013-03-28 01:17:00,
2013-03-27 20:22:00,31.5,23.2,30.32,WNW,282,0.0,0.0,71,0.00,,,0.00,0,Wunderground v.1.15,2013-03-28 01:22:00,
2013-03-27 20:27:00,31.1,23.8,30.32,WNW,282,0.0,0.0,74,0.00,,,0.00,0,Wunderground v.1.15,2013-03-28 01:27:00,
2013-03-27 20:35:00,30.9,23.6,30.33,WNW,282,0.0,0.0,74,0.00,,,0.00,0,Wunderground v.1.15,2013-03-28 01:35:00,
2013-03-27 20:41:00,30.6,23.3,30.33,WNW,282,0.0,0.0,74,0.00,,,0.00,0,Wunderground v.1.15,2013-03-28 01:41:00,
2013-03-27 20:46:00,30.3,24.0,30.33,WNW,282,0.0,0.0,77,0.00,,,0.00,0,Wunderground v.1.15,2013-03-28 01:46:00,
2013-03-27 20:52:00,30.0,24.3,30.33,WNW,282,0.0,0.0,79,0.00,,,0.00,0,Wunderground v.1.15,2013-03-28 01:52:00,
2013-03-27 21:00:00,29.7,23.7,30.33,WNW,282,0.0,0.0,78,0.00,,,0.00,0,Wunderground v.1.15,2013-03-28 02:00:00,
2013-03-27 21:06:00,29.7,23.4,30.33,WNW,282,0.0,0.0,77,0.00,,,0.00,0,Wunderground v.1.15,2013-03-28 02:06:00,
2013-03-27 21:12:00,29.6,24.2,30.33,WNW,282,0.0,0.0,80,0.00,,,0.00,0,Wunderground v.1.15,2013-03-28 02:12:00,
2013-03-27 21:18:00,29.3,23.6,30.34,WNW,282,0.0,0.0,79,0.00,,,0.00,0,Wunderground v.1.15,2013-03-28 02:18:00,
2013-03-27 21:23:00,29.1,23.7,30.34,WNW,282,0.0,0.0,80,0.00,,,0.00,0,Wunderground v.1.15,2013-03-28 02:23:00,
2013-03-27 21:30:00,28.9,24.1,30.34,WNW,282,0.0,0.0,82,0.00,,,0.00,0,Wunderground v.1.15,2013-03-28 02:30:00,
2013-03-27 21:36:00,28.7,24.2,30.34,WNW,282,0.0,0.0,83,0.00,,,0.00,0,Wunderground v.1.15,2013-03-28 02:36:00,
2013-03-27 21:42:00,28.6,24.1,30.34,WNW,282,0.0,0.0,83,0.00,,,0.00,0,Wunderground v.1.15,2013-03-28 02:42:00,
2013-03-27 21:47:00,28.7,24.2,30.34,WNW,282,0.0,0.0,83,0.00,,,0.00,0,Wunderground v.1.15,2013-03-28 02:47:00,
2013-03-27 21:53:00,28.6,23.8,30.34,WNW,282,0.0,0.0,82,0.00,,,0.00,0,Wunderground v.1.15,2013-03-28 02:53:00,
2013-03-27 22:00:00,28.4,23.9,30.34,WNW,282,0.0,0.0,83,0.00,,,0.00,0,Wunderground v.1.15,2013-03-28 03:00:00,
2013-03-27 22:05:00,28.2,23.4,30.34,WNW,282,0.0,0.0,82,0.00,,,0.00,0,Wunderground v.1.15,2013-03-28 03:05:00,
2013-03-27 22:10:00,28.0,23.2,30.34,WNW,282,0.0,0.0,82,0.00,,,0.00,0,Wunderground v.1.15,2013-03-28 03:10:00,
2013-03-27 22:15:00,28.0,23.5,30.34,WNW,282,0.0,0.0,83,0.00,,,0.00,0,Wunderground v.1.15,2013-03-28 03:15:00,
2013-03-27 22:21:00,27.8,23.0,30.34,WNW,282,0.0,0.0,82,0.00,,,0.00,0,Wunderground v.1.15,2013-03-28 03:21:00,
2013-03-27 22:27:00,27.7,23.2,30.34,WNW,282,0.0,0.0,83,0.00,,,0.00,0,Wunderground v.1.15,2013-03-28 03:27:00,
2013-03-27 22:32:00,27.5,22.7,30.34,WNW,282,0.0,0.0,82,0.00,,,0.00,0,Wunderground v.1.15,2013-03-28 03:32:00,
2013-03-27 22:37:00,27.6,22.8,30.34,WNW,282,0.0,0.0,82,0.00,,,0.00,0,Wunderground v.1.15,2013-03-28 03:37:00,
2013-03-27 22:42:00,27.4,22.9,30.34,WNW,282,0.0,0.0,83,0.00,,,0.00,0,Wunderground v.1.15,2013-03-28 03:42:00,
2013-03-27 22:50:00,27.4,23.2,30.34,WNW,282,0.0,0.0,84,0.00,,,0.00,0,Wunderground v.1.15,2013-03-28 03:50:00,
2013-03-27 22:55:00,27.2,23.0,30.34,WNW,282,0.0,0.0,84,0.00,,,0.00,0,Wunderground v.1.15,2013-03-28 03:55:00,
2013-03-27 23:00:00,26.9,22.1,30.34,WNW,282,0.0,0.0,82,0.00,,,0.00,0,Wunderground v.1.15,2013-03-28 04:00:00,
2013-03-27 23:01:00,26.9,22.4,30.34,WNW,282,0.0,0.0,83,0.00,,,0.00,0,Wunderground v.1.15,2013-03-28 04:01:00,
2013-03-27 23:05:00,27.1,22.3,30.34,WNW,282,0.0,0.0,82,0.00,,,0.00,0,Wunderground v.1.15,2013-03-28 04:05:00,
2013-03-27 23:06:00,27.0,22.5,30.34,WNW,282,0.0,0.0,83,0.00,,,0.00,0,Wunderground v.1.15,2013-03-28 04:06:00,
2013-03-27 23:11:00,26.8,22.3,30.34,WNW,282,0.0,0.0,83,0.00,,,0.00,0,Wunderground v.1.15,2013-03-28 04:11:00,
2013-03-27 23:16:00,26.8,22.6,30.34,WNW,282,0.0,0.0,84,0.00,,,0.00,0,Wunderground v.1.15,2013-03-28 04:16:00,
2013-03-27 23:22:00,26.4,22.2,30.34,WNW,282,0.0,0.0,84,0.00,,,0.00,0,Wunderground v.1.15,2013-03-28 04:22:00,
2013-03-27 23:30:00,26.4,22.2,30.34,WNW,282,0.0,0.0,84,0.00,,,0.00,0,Wunderground v.1.15,2013-03-28 04:30:00,
2013-03-27 23:35:00,26.4,22.5,30.34,WNW,282,0.0,0.0,85,0.00,,,0.00,0,Wunderground v.1.15,2013-03-28 04:35:00,
2013-03-27 23:41:00,26.1,22.2,30.34,WNW,282,0.0,0.0,85,0.00,,,0.00,0,Wunderground v.1.15,2013-03-28 04:41:00,
2013-03-27 23:46:00,25.9,22.0,30.34,WNW,282,0.0,0.0,85,0.00,,,0.00,0,Wunderground v.1.15,2013-03-28 04:46:00,
2013-03-27 23:52:00,26.3,22.4,30.34,WNW,282,0.0,0.0,85,0.00,,,0.00,0,Wunderground v.1.15,2013-03-28 04:52:00,